Weather History for Detroit Metro, MI

Change the Weather History Date:

Thursday, August 1, 2013

  Actual Average Record
Temperature  
Mean Temperature 73 °F 73 °F  
Max Temperature 82 °F 83 °F 97 °F (1988)
Min Temperature 64 °F 64 °F 48 °F (1971)
Degree Days  
Heating Degree Days 0 0  
Month to date heating degree days 0 0  
Since 1 June heating degree days 27 37  
Since 1 July heating degree days 4 2  
Cooling Degree Days 8 8  
Month to date cooling degree days 8 8  
Year to date cooling degree days 574 494  
Since 1 June cooling degree days 471 446  
Growing Degree Days 23 (Base 50)    
Moisture  
Dew Point 60 °F    
Average Humidity 66    
Maximum Humidity 93    
Minimum Humidity 39    
Precipitation  
Precipitation 0.00 in 0.11 in 1.17 in (1922)
Month to date precipitation 0.00 0.11  
Year to date precipitation 25.00 19.54  
Snow  
Snow 0.00 in 0.00 in 0.00 in ()
Month to date snowfall 0.0 0.0  
Since 1 June snowfall 0.0 0.0  
Since 1 July snowfall 0.0 0.0  
Snow Depth 0.00 in    
Sea Level Pressure  
Sea Level Pressure 29.91 in    
Wind  
Wind Speed 8 mph (West)    
Max Wind Speed 16 mph    
Max Gust Speed 22 mph    
Visibility 9 miles    
Events      
T = Trace of Precipitation, MM = Missing Value Source: NWS Daily Summary

Daily Weather History Graph

Daily Weather History Graph

Search for Another Location

Airport:

Trip Planner

Search our weather history database for the weather conditions in past years. The results will help you decide how hot, cold, wet, or windy it might be!

Date:

Astronomy

Aug. 01, 2013 Rise Set
Actual Time 6:26 AM EDT 8:52 PM EDT
Civil Twilight 5:54 AM EDT 9:23 PM EDT
Nautical Twilight 5:15 AM EDT 10:02 PM EDT
Astronomical Twilight 4:31 AM EDT 10:46 PM EDT
Moon 2:01 AM EDT (8/1) 5:00 PM EDT (8/1)
Length of Visible Light 15h 28m
Length of Day
14h 25m
Waning Crescent, 23% of the Moon is Illuminated
Aug 1
Waning Crescent
Aug 6
New
Aug 14
First Quarter
Aug 20
Full
Aug 28
Last Quarter

Hourly Weather History & Observations

Time (EDT) Temp. Heat Index Dew Point Humidity Pressure Visibility Wind Dir Wind Speed Gust Speed Precip Events Conditions
12:25 AM 68.0 °F - 66.2 °F 94% 29.90 in 10.0 mi West 8.1 mph - N/A   Overcast
12:50 AM 68.0 °F - 64.4 °F 88% 29.91 in 10.0 mi West 5.8 mph - N/A   Overcast
12:53 AM 68.0 °F - 64.9 °F 90% 29.90 in 10.0 mi West 5.8 mph - N/A   Overcast
1:53 AM 66.9 °F - 64.0 °F 90% 29.90 in 10.0 mi West 8.1 mph - N/A   Overcast
2:22 AM 66.2 °F - 62.6 °F 88% 29.89 in 10.0 mi WNW 5.8 mph - N/A   Overcast
2:53 AM 66.0 °F - 63.0 °F 90% 29.89 in 10.0 mi WNW 8.1 mph - N/A   Overcast
3:36 AM 66.2 °F - 62.6 °F 88% 29.89 in 10.0 mi West 5.8 mph - N/A   Overcast
3:53 AM 64.9 °F - 63.0 °F 93% 29.88 in 9.0 mi WNW 4.6 mph - N/A   Overcast
4:25 AM 66.2 °F - 64.4 °F 94% 29.90 in 9.0 mi West 3.5 mph - N/A   Overcast
4:53 AM 66.0 °F - 64.0 °F 93% 29.90 in 10.0 mi WNW 4.6 mph - N/A   Overcast
5:53 AM 66.0 °F - 63.0 °F 90% 29.91 in 9.0 mi West 8.1 mph - N/A   Overcast
6:34 AM 64.4 °F - 60.8 °F 88% 29.92 in 9.0 mi WNW 9.2 mph - N/A   Mostly Cloudy
6:53 AM 64.9 °F - 62.1 °F 90% 29.91 in 7.0 mi West 9.2 mph - N/A   Mostly Cloudy
7:53 AM 64.9 °F - 61.0 °F 87% 29.92 in 6.0 mi West 6.9 mph - N/A   Scattered Clouds
8:32 AM 66.2 °F - 60.8 °F 83% 29.92 in 6.0 mi West 9.2 mph - N/A   Haze
8:53 AM 66.0 °F - 61.0 °F 84% 29.92 in 9.0 mi West 9.2 mph - N/A   Mostly Cloudy
9:53 AM 68.0 °F - 61.0 °F 78% 29.93 in 9.0 mi West 10.4 mph - N/A   Mostly Cloudy
10:19 AM 69.8 °F - 62.6 °F 78% 29.93 in 9.0 mi WSW 11.5 mph - N/A   Scattered Clouds
10:53 AM 70.0 °F - 62.1 °F 76% 29.92 in 10.0 mi West 11.5 mph - N/A   Scattered Clouds
11:53 AM 73.9 °F - 63.0 °F 68% 29.92 in 10.0 mi SW 5.8 mph - N/A   Scattered Clouds
12:53 PM 75.9 °F - 61.0 °F 60% 29.92 in 10.0 mi WSW 12.7 mph - N/A   Scattered Clouds
1:53 PM 79.0 °F - 59.0 °F 50% 29.91 in 10.0 mi WNW 10.4 mph - N/A   Mostly Cloudy
2:53 PM 81.0 °F 81.0 °F 57.0 °F 44% 29.90 in 10.0 mi West 13.8 mph 20.7 mph N/A   Scattered Clouds
3:53 PM 81.0 °F 80.7 °F 55.0 °F 41% 29.89 in 10.0 mi West 12.7 mph 17.3 mph N/A   Scattered Clouds
4:53 PM 80.1 °F 80.0 °F 54.0 °F 40% 29.88 in 10.0 mi West 5.8 mph - N/A   Mostly Cloudy
5:53 PM 75.9 °F - 55.9 °F 50% 29.89 in 10.0 mi NNW 11.5 mph - N/A   Mostly Cloudy
6:53 PM 70.0 °F - 59.0 °F 68% 29.91 in 10.0 mi NW 8.1 mph - 0.00 in   Mostly Cloudy
7:53 PM 72.0 °F - 57.0 °F 59% 29.90 in 10.0 mi NW 3.5 mph - 0.00 in   Scattered Clouds
8:53 PM 70.0 °F - 57.0 °F 63% 29.90 in 10.0 mi WSW 4.6 mph - N/A   Scattered Clouds
9:53 PM 69.1 °F - 57.0 °F 65% 29.92 in 10.0 mi West 8.1 mph - N/A   Scattered Clouds
10:53 PM 68.0 °F - 55.9 °F 65% 29.93 in 10.0 mi West 6.9 mph - N/A   Scattered Clouds
11:53 PM 66.0 °F - 54.0 °F 65% 29.92 in 10.0 mi West 6.9 mph - N/A   Clear